CAPE
1790 1694 1892 1967 1722 1225 1220 1093 972 931 980 642 535 641 595 767 935 689 767 767 1396 1645 1757 2487 3274 3731 3452 3491 4235 3903 2964 3293 3325 3085 3363 3324 2959 2546 2214 2194 2520 2563
1799 1633 1684 1681 1759 1607 1458 1204 1037 829 933 1059 667 458 648 728 923 1123 906 883 1290 1732 1932 2980 3454 3675 3662 3283 4093 3592 3605 3571 3475 2912 3094 3428 3340 2760 2541 2679 2573 2622
1921 1738 1750 1632 1445 1634 1478 1447 1248 1193 1047 940 759 799 783 956 845 935 911 1166 1673 1920 2246 2390 3418 3900 3572 3362 3706 3486 3131 3681 3519 2967 3319 3359 3028 2712 2767 2502 2154 2284
2030 1758 1478 1194 1055 1134 1092 1242 1440 1506 1144 939 841 691 841 709 551 738 1409 2302 2679 2572 2572 2794 2817 2822 3005 3101 3837 3556 3298 3996 3491 3673 3504 3656 3381 2980 2984 2803 2294 2232
1608 1580 1402 1231 922 1056 1150 1162 1280 1266 1058 1091 1078 1048 1093 1044 1236 1174 1847 2460 2444 2672 2616 2849 3070 2755 2996 3402 3798 3619 3211 3446 3304 3662 3625 3714 3546 3311 2906 2682 2952 2582
1216 1418 1470 1322 1136 1160 1105 1168 1250 1292 1247 1080 1206 1266 1345 1456 1496 1815 1891 2054 2186 2005 2085 2442 2551 2398 2482 3033 3440 3309 2996 2652 2337 3426 3758 3978 3370 2888 2647 2814 3412 3293
1112 1168 1150 1209 1203 1266 1176 1190 1132 1132 1210 1262 1308 1320 1403 1538 1772 1961 2095 2128 1967 1949 1810 1926 2400 2478 2382 2774 3088 3573 3505 3071 2997 3244 3589 3453 3469 3322 2721 2732 3295 3471
1221 1117 1150 1072 1052 1171 1354 1134 1170 1242 1195 1245 1282 1408 1349 1348 1699 1807 2004 2022 1995 1891 1972 1872 2185 2604 2548 2425 2730 2895 3004 2454 2564 3231 3632 3259 3162 3412 3526 2783 2773 3676
1071 968 1183 1128 1113 1039 1131 1127 1089 1239 1275 960 823 826 1248 1226 1479 1594 1823 2096 2003 1945 2279 2194 2327 2561 2481 2431 2510 2625 2780 2490 1984 2291 2856 3138 3060 3290 3171 3157 3032 3226
1266 785 660 931 991 976 929 1023 872 914 1175 916 721 535 715 1244 1117 1425 1773 2230 2208 2258 2326 2237 2170 2281 2265 2451 2640 2767 2847 2866 2852 2938 2870 2765 2692 2563 2342 2386 2328 2138
1587 1119 595 544 758 854 933 823 914 694 941 963 775 478 430 820 1345 1208 1581 2040 2017 2046 2125 2155 2059 1931 2230 2448 2568 2665 2772 2912 2973 3186 2970 3030 2830 2652 2900 3180 2553 2645
1826 1568 982 585 546 586 639 732 826 711 640 930 954 653 616 744 1086 1478 1271 1761 2102 2020 1811 1970 2078 2077 2359 2544 2604 2477 2405 2735 3006 2997 2862 2852 2873 2831 2886 2769 2428 2328
2153 2102 1861 1321 751 582 510 470 500 668 647 708 975 870 741 841 898 1431 1830 2071 2335 2024 1617 1676 1961 2248 2413 2608 2660 2486 2361 2478 2715 2875 2886 2729 2455 2731 2497 2738 2331 2802
2375 2317 2223 2284 1935 1667 1120 774 483 451 565 619 631 840 714 685 771 856 1385 1960 1821 1470 1358 1481 1772 2200 2479 2632 2654 2412 2582 2834 2932 2950 2840 2519 2295 2816 2270 2543 2574 2698
2605 2684 2686 2711 2760 2779 2664 1820 1228 730 599 689 767 688 781 672 715 605 719 1112 1414 1348 1321 1397 1627 1736 1814 1972 2652 2786 2898 2854 2974 2935 2720 2447 2730 2940 2928 2603 2740 2778
2446 2918 3170 3294 3102 3100 3232 3149 2656 2065 1374 1171 1142 1023 1187 1254 1082 855 599 644 990 1207 1382 1646 1792 1580 1600 2872 2734 2831 3204 3446 3177 2938 2980 3060 2913 2775 2671 2377 2733 2942
2400 2852 3444 3576 3776 3483 3380 3448 3208 3044 2765 2334 2026 1975 1912 1866 1558 1120 1054 766 666 721 794 1145 1482 1744 2411 2000 1813 1455 2004 2323 2718 3098 3491 3618 3404 3237 3249 3110 2568 2695
2095 2878 3450 3606 3556 3614 3744 3914 3811 3123 3216 3219 2699 2433 2544 2270 1889 1559 1267 1010 726 698 810 1110 1326 3435 2280 1833 1256 986 1489 2241 2595 2922 3183 3034 3068 2992 2930 2767 2140 1644
1967 2244 2196 2577 2641 2812 3183 3572 3905 3843 3521 3102 2849 2660 2419 2492 2224 1685 1439 1449 1142 1025 1212 1241 1962 2500 2026 1297 937 928 939 2058 2320 2819 2927 3046 3025 3179 2856 2543 2265 2009
1718 1953 2010 2034 2330 2342 2420 2731 3388 3875 3406 2987 2873 2726 2515 2444 2405 2292 1908 1846 1592 1337 1607 2311 2225 1946 1595 1025 714 748 880 990 2175 2364 2970 3165 3259 3306 3155 2933 2298 2124
1690 1742 1866 1982 2101 2230 2181 2420 2642 2781 3263 3364 3291 3194 2775 2571 2437 2164 2253 2134 2032 2355 2834 2168 1958 1859 1321 809 766 798 832 852 1628 2338 2543 2575 2888 3029 2976 2753 2772 2642
1838 1716 1339 1749 1835 1898 1838 2297 2640 2617 2938 3563 3344 3248 3145 2945 2969 2616 2541 2610 2879 3022 2550 1717 1537 1343 898 764 782 810 789 880 2008 2611 2578 2533 2594 2692 2900 2613 2354 2290
2004 1778 1178 1401 1542 1634 1758 1630 2095 2146 2224 2918 3133 2966 3105 3091 3083 2910 2620 2892 2785 2717 2477 1704 1531 1283 1060 972 946 1052 1178 1493 2181 2211 2343 2235 2361 2451 2037 1806 1659 1651
1607 1648 1610 1383 1186 1394 1660 1814 2017 1929 2380 2657 2279 2617 2978 2957 2710 1962 1679 1771 1718 1796 1646 1586 1380 1158 1070 970 1074 1181 1246 1527 2016 1861 2136 2253 1744 1214 1023 893 804 785
1333 1058 1407 1424 1080 1207 1482 1633 1841 1885 2316 1758 2138 2278 1969 1474 1461 1382 1346 1334 1282 1237 1152 1166 1032 836 908 1130 1258 1284 1191 1323 1927 1472 1277 1309 825 692 627 593 603 566
834 830 613 833 999 973 1177 1244 1774 2136 1736 1108 1093 1074 1129 1077 989 986 1036 969 870 826 783 723 690 917 1097 1262 1244 1229 1140 1051 975 931 878 782 638 552 535 490 433 397
Wind_Speed
2 2 4 4 5 5 3 2 2 1 3 3 2 3 4 3 3 5 4 3 2 4 3 4 3 3 4 4 4 4 4 4 5 3 3 4 5 5 5 4 4 4
1 2 3 3 4 5 5 3 2 2 1 4 5 4 3 3 2 2 2 3 2 3 3 2 2 3 3 4 2 3 3 2 2 2 1 2 3 4 5 5 5 5
4 4 4 2 2 2 1 2 3 2 3 1 2 4 4 3 1 1 1 1 2 2 1 1 1 1 2 2 3 3 2 1 2 2 2 2 3 4 5 6 4 3
5 5 5 4 3 3 2 2 3 3 3 3 3 2 2 3 2 2 3 1 1 2 2 1 0 1 0 1 1 2 2 1 1 2 2 2 2 3 4 3 3 3
5 6 6 5 4 4 4 3 2 3 2 3 3 3 3 3 3 1 3 3 1 1 2 2 2 2 2 2 1 1 1 1 2 1 0 1 1 1 2 2 3 3
7 7 7 7 6 5 4 4 3 3 2 2 1 2 2 3 1 2 2 2 2 2 2 2 2 1 0 1 1 2 2 1 2 3 1 0 1 2 2 4 4 3
10 8 6 6 6 7 5 4 4 3 3 2 3 2 3 3 2 1 2 3 4 4 4 4 4 4 3 3 3 2 2 3 3 2 1 1 2 2 4 4 5 3
12 11 8 7 5 6 7 6 5 4 3 3 2 3 3 2 2 2 2 2 3 4 5 5 5 4 5 5 3 2 1 1 1 3 2 3 4 4 5 4 4 3
13 13 12 8 5 6 6 7 7 6 5 3 3 4 4 2 3 2 3 3 4 5 6 6 6 6 5 5 5 3 3 2 3 3 5 4 5 5 5 6 4 3
15 13 12 11 8 8 6 7 8 8 7 5 4 4 4 5 3 3 4 5 5 6 6 6 6 5 5 5 4 4 4 5 4 5 5 5 6 6 6 6 8 6
16 15 13 13 11 11 9 8 8 9 10 8 7 6 5 6 7 5 6 7 6 5 5 6 6 6 6 6 6 7 7 7 6 6 6 7 7 7 6 6 9 8
18 18 16 15 14 13 12 11 10 10 10 11 10 9 8 7 7 8 7 8 8 7 7 7 7 8 8 9 8 8 8 8 8 8 9 9 11 10 10 14 11 11
19 20 20 19 18 17 17 16 14 12 11 12 13 12 11 10 10 9 10 10 10 8 8 8 9 9 10 10 10 9 9 9 9 11 13 15 14 15 14 15 15 11
21 22 22 22 22 22 20 19 17 15 14 13 14 13 12 12 12 11 11 12 11 9 8 9 10 11 11 12 11 10 10 10 12 14 16 17 16 17 15 16 14 12
25 25 25 24 24 24 23 21 20 19 17 16 16 15 15 14 14 12 13 13 13 12 11 11 11 12 12 13 12 11 11 12 15 17 17 18 18 17 16 16 15 14
26 27 26 26 25 24 24 24 22 22 21 20 19 18 17 17 15 15 14 15 15 15 14 14 14 14 16 20 23 18 17 17 17 18 19 19 18 17 17 15 15 15
26 28 28 26 26 25 25 25 24 25 24 23 22 21 19 19 17 16 17 18 18 17 16 17 16 19 32 29 25 22 17 17 18 19 20 20 20 20 19 19 18 19
21 26 29 28 27 26 26 27 28 26 25 25 24 23 23 22 20 19 20 19 20 20 20 20 20 34 34 33 28 26 21 20 21 21 21 22 22 23 22 22 22 20
18 21 25 27 25 25 27 29 29 28 27 26 24 25 26 25 25 24 23 23 22 23 24 24 31 36 39 34 34 30 27 22 23 22 23 24 24 24 23 24 23 23
17 18 21 24 27 27 29 29 30 30 29 28 28 28 27 27 27 27 27 26 26 25 28 30 40 40 40 39 36 35 32 25 25 25 26 27 26 25 24 24 24 22
20 20 20 23 25 29 32 33 31 31 30 30 30 29 29 29 29 29 30 30 29 29 30 39 42 42 42 39 38 34 32 25 27 29 30 29 28 27 27 28 29 28
23 24 23 24 26 28 32 35 34 32 31 31 30 30 30 30 31 30 32 33 32 33 33 43 41 43 41 38 37 33 30 28 30 32 30 30 30 31 32 32 30 27
28 27 26 26 28 28 30 34 36 34 32 32 32 31 31 32 32 32 34 34 34 36 34 41 41 42 41 37 36 36 31 32 33 32 32 32 36 36 34 33 31 27
27 27 29 29 28 28 30 35 38 38 36 35 33 34 35 36 38 42 43 44 42 41 38 43 44 45 42 39 36 36 34 35 35 35 35 37 38 41 40 42 44 50
27 28 28 28 28 31 35 37 40 41 40 38 38 40 41 43 43 45 47 47 47 48 50 47 45 47 46 42 39 38 37 38 38 37 36 37 42 44 44 43 44 46
32 27 25 26 29 35 35 36 41 41 39 40 44 46 46 45 46 47 49 50 49 49 48 47 47 47 48 45 42 41 39 39 41 38 41 45 46 46 47 47 46 45
Wind_Direction
185 169 145 139 141 147 162 172 158 147 145 135 117 109 119 151 153 141 135 136 122 111 99 99 103 102 106 108 120 129 140 143 144 160 129 131 133 128 137 145 128 118
250 247 206 169 173 176 180 182 190 168 221 148 152 179 189 198 192 141 137 138 128 105 110 87 81 95 113 132 149 148 162 163 132 145 161 103 121 130 124 121 123 132
268 272 279 264 228 249 194 208 195 191 190 179 185 185 206 237 185 252 200 149 132 111 348 112 99 113 125 145 173 162 170 186 145 142 184 167 149 146 145 136 141 138
269 271 274 287 274 276 273 242 233 204 191 214 197 223 211 212 261 295 285 255 194 188 201 302 134 147 80 147 209 181 195 215 167 177 184 177 153 150 146 151 157 169
251 273 271 266 264 255 248 258 264 267 249 219 225 219 220 203 195 254 282 288 255 229 245 218 230 180 196 201 237 207 214 263 332 340 188 116 135 129 146 180 199 199
241 243 264 269 267 266 260 266 268 275 293 295 250 234 254 267 228 188 231 258 277 264 235 254 260 253 238 238 197 181 172 173 230 286 326 65 152 196 217 236 240 230
253 249 253 261 278 279 271 268 268 274 283 274 277 274 256 278 276 231 206 215 196 207 214 221 217 194 199 193 188 189 174 161 175 209 229 229 248 223 225 237 254 248
251 254 247 242 258 277 280 276 272 273 280 288 298 285 280 272 270 270 272 236 224 220 204 195 204 204 176 181 178 171 153 205 268 303 292 257 243 242 244 244 257 277
246 250 252 251 245 246 268 271 274 272 274 290 292 287 293 280 277 259 238 246 224 214 215 200 194 192 197 186 186 191 203 205 232 249 270 269 271 271 263 256 267 278
247 245 254 255 250 242 246 259 260 267 265 265 268 267 278 281 269 249 255 248 227 218 216 205 203 205 205 219 224 229 234 236 241 247 252 262 266 265 273 276 255 234
245 249 248 254 251 242 246 248 251 254 259 261 260 262 267 270 273 261 251 258 249 239 227 221 220 225 236 236 236 245 255 257 264 267 272 271 265 262 272 276 280 294
238 244 247 252 251 247 244 242 241 245 251 257 257 255 256 253 257 260 259 260 253 239 230 232 235 237 244 247 251 257 266 277 283 285 281 274 268 271 268 272 268 258
235 238 238 240 246 244 242 242 240 240 241 247 253 257 260 259 257 256 253 254 257 248 238 236 240 244 248 251 253 257 265 273 279 280 276 268 272 272 274 271 267 270
236 235 236 235 237 241 242 242 245 245 244 240 244 252 256 261 263 265 263 263 262 255 249 245 249 250 251 252 255 261 271 277 273 267 265 268 268 278 278 277 284 290
238 236 234 237 238 239 242 245 246 246 244 243 241 240 244 252 259 264 267 267 267 265 260 253 251 257 259 267 270 268 260 257 261 264 265 267 272 273 271 272 281 284
239 239 238 238 241 242 244 244 245 249 250 249 244 243 240 242 249 256 261 265 265 265 263 262 261 259 263 252 244 247 252 253 254 257 261 264 268 269 274 276 276 277
243 240 241 243 244 244 246 248 247 246 249 253 255 253 250 248 247 251 256 261 262 262 263 264 266 264 264 268 266 260 257 257 258 261 266 267 266 267 267 272 269 271
250 246 244 244 244 245 246 247 248 249 249 252 254 259 257 254 253 251 251 253 257 262 264 262 259 258 266 265 266 269 265 258 261 264 266 266 266 265 267 272 272 269
259 253 248 246 245 246 247 247 249 252 253 250 250 251 253 255 254 253 252 253 254 256 257 259 257 255 260 260 263 261 263 261 262 262 262 263 263 265 268 269 265 264
263 260 254 252 249 247 247 246 246 248 248 246 245 247 250 252 254 256 254 254 254 254 256 258 257 251 252 254 256 258 259 259 261 260 259 258 258 259 260 263 271 273
258 261 257 253 254 251 248 245 244 244 245 245 247 248 251 253 253 257 257 257 257 257 259 257 254 251 251 252 254 255 257 258 258 258 258 258 259 259 258 256 253 256
248 254 260 254 253 255 250 246 243 244 244 244 244 246 248 250 252 253 257 259 258 258 260 258 257 253 255 255 254 253 253 258 261 262 261 260 260 259 258 257 257 259
245 250 255 256 256 256 251 244 241 242 242 241 244 246 248 250 251 251 253 257 258 256 256 258 259 255 254 255 256 253 253 255 256 257 258 257 256 255 255 254 252 257
243 247 251 254 257 259 254 243 237 238 241 242 244 248 250 251 251 250 247 244 244 249 247 257 256 254 250 249 250 251 248 250 251 252 253 255 257 255 254 254 251 245
249 245 248 252 254 254 248 241 235 237 241 243 244 247 249 249 252 252 251 250 248 249 249 255 257 258 254 248 247 246 249 253 253 254 254 258 260 258 258 258 258 256
243 248 251 252 257 255 248 238 234 238 245 246 243 244 249 253 256 256 256 254 252 253 256 257 258 257 254 249 248 245 243 248 255 257 258 258 258 259 260 261 261 261